,,,PA_Meas_PMT16A,,PR_Meas_QMR101_102,,RH_Meas_QMH101,,SR_Meas_QMS101,,TA_Meas_QMH101,,GenWind,,GenWind,
date,time,status,PA,status,PR,status,RH,status,SR,status,TA,status,DirAvg,status,SpdAvg,
2011-01-04, 00:00:05,VALID,1007.61,VALID,0,VALID,104,VALID,0,VALID,23.2069,VALID,40,VALID,0,
2011-01-04, 00:01:05,VALID,1007.58,VALID,0,VALID,104,VALID,0,VALID,23.1874,VALID,40,VALID,0.303906,
2011-01-04, 00:02:05,VALID,1007.57,VALID,0,VALID,104,VALID,0,VALID,23.1874,VALID,40,VALID,0.338281,
2011-01-04, 00:03:05,VALID,1007.56,VALID,0,VALID,104,VALID,0,VALID,23.2069,VALID,40,VALID,0,
2011-01-04, 00:04:05,VALID,1007.56,VALID,0,VALID,104,VALID,0,VALID,23.2069,VALID,40,VALID,0,
2011-01-04, 00:05:05,VALID,1007.56,VALID,0,VALID,104,VALID,0,VALID,23.1874,VALID,40,VALID,0,
2011-01-04, 00:06:05,VALID,1007.53,VALID,0,VALID,104,VALID,0,VALID,23.1874,VALID,40,VALID,0,
2011-01-04, 00:07:05,VALID,1007.54,VALID,0,VALID,104,VALID,0,VALID,23.2069,VALID,40,VALID,0,
2011-01-04, 00:08:05,VALID,1007.54,VALID,0,VALID,104,VALID,0,VALID,23.1874,VALID,40,VALID,0.0980469,
2011-01-04, 00:09:05,VALID,1007.54,VALID,0,VALID,104,VALID,0,VALID,23.2087,VALID,40,VALID,0,
2011-01-04, 00:10:05,VALID,1007.49,VALID,0,VALID,104,VALID,0.105969,VALID,23.2264,VALID,40,VALID,0,
2011-01-04, 00:11:05,VALID,1007.47,VALID,0,VALID,104,VALID,0.105969,VALID,23.1857,VALID,40,VALID,0,
2011-01-04, 00:12:05,VALID,1007.49,VALID,0,VALID,104,VALID,0.105969,VALID,23.2051,VALID,40,VALID,0,
2011-01-04, 00:13:05,VALID,1007.49,VALID,0,VALID,104,VALID,0.105969,VALID,23.1857,VALID,40,VALID,0.192578,
2011-01-04, 00:14:05,VALID,1007.48,VALID,0,VALID,104,VALID,0.105969,VALID,23.1644,VALID,40,VALID,0,
2011-01-04, 00:15:05,VALID,1007.46,VALID,0,VALID,104,VALID,0,VALID,23.1857,VALID,40,VALID,0,
2011-01-04, 00:16:05,VALID,1007.46,VALID,0,VALID,104,VALID,0,VALID,23.1662,VALID,40,VALID,0,
2011-01-04, 00:17:05,VALID,1007.48,VALID,0,VALID,104,VALID,0,VALID,23.1857,VALID,40,VALID,0,
2011-01-04, 00:18:05,VALID,1007.48,VALID,0,VALID,104,VALID,0,VALID,23.1874,VALID,40,VALID,0,
2011-01-04, 00:19:05,VALID,1007.46,VALID,0,VALID,104,VALID,0,VALID,23.1857,VALID,40,VALID,0,
2011-01-04, 00:20:05,VALID,1007.43,VALID,0,VALID,104,VALID,0,VALID,23.2069,VALID,40,VALID,0,
2011-01-04, 00:21:05,VALID,1007.4,VALID,0,VALID,104,VALID,0,VALID,23.2069,VALID,40,VALID,0,
2011-01-04, 00:22:05,VALID,1007.36,VALID,0,VALID,104,VALID,0.105969,VALID,23.1857,VALID,40,VALID,0,
2011-01-04, 00:23:05,VALID,1007.35,VALID,0,VALID,104,VALID,0,VALID,23.1857,VALID,40,VALID,0,
2011-01-04, 00:24:05,VALID,1007.32,VALID,0,VALID,104,VALID,0,VALID,23.2069,VALID,40,VALID,0,
2011-01-04, 00:25:05,VALID,1007.31,VALID,0,VALID,104,VALID,0,VALID,23.2087,VALID,40,VALID,0,
2011-01-04, 00:26:05,VALID,1007.28,VALID,0,VALID,104,VALID,0,VALID,23.1874,VALID,40,VALID,0,
2011-01-04, 00:27:05,VALID,1007.29,VALID,0,VALID,104,VALID,0,VALID,23.2069,VALID,40,VALID,0,
2011-01-04, 00:28:05,VALID,1007.29,VALID,0,VALID,104,VALID,0,VALID,23.2087,VALID,40,VALID,0,
2011-01-04, 00:29:05,VALID,1007.29,VALID,0,VALID,104,VALID,0,VALID,23.1874,VALID,40,VALID,0,
2011-01-04, 00:30:05,VALID,1007.29,VALID,0,VALID,104,VALID,0,VALID,23.1874,VALID,40,VALID,0,
2011-01-04, 00:31:05,VALID,1007.29,VALID,0,VALID,104,VALID,0,VALID,23.2087,VALID,40,VALID,0,
2011-01-04, 00:32:05,VALID,1007.29,VALID,0,VALID,104,VALID,0,VALID,23.1874,VALID,40,VALID,0,
2011-01-04, 00:33:05,VALID,1007.3,VALID,0,VALID,104,VALID,0,VALID,23.1679,VALID,40,VALID,0,
2011-01-04, 00:34:05,VALID,1007.27,VALID,0,VALID,104,VALID,0,VALID,23.2087,VALID,40,VALID,0,
2011-01-04, 00:35:05,VALID,1007.24,VALID,0,VALID,104,VALID,0,VALID,23.1874,VALID,40,VALID,0,
2011-01-04, 00:36:05,VALID,1007.26,VALID,0,VALID,104,VALID,0,VALID,23.1874,VALID,40,VALID,0,
2011-01-04, 00:37:05,VALID,1007.25,VALID,0,VALID,104,VALID,0,VALID,23.1679,VALID,40,VALID,0,
2011-01-04, 00:38:05,VALID,1007.25,VALID,0,VALID,104,VALID,0,VALID,23.1679,VALID,40,VALID,0,
2011-01-04, 00:39:05,VALID,1007.25,VALID,0,VALID,104,VALID,0,VALID,23.1874,VALID,40,VALID,0,
2011-01-04, 00:40:05,VALID,1007.28,VALID,0,VALID,104,VALID,0,VALID,23.2282,VALID,40,VALID,0.389844,
2011-01-04, 00:41:05,VALID,1007.27,VALID,0,VALID,104,VALID,0,VALID,23.1874,VALID,40,VALID,0.142188,
2011-01-04, 00:42:05,VALID,1007.29,VALID,0,VALID,104,VALID,0,VALID,23.2264,VALID,40,VALID,0.292578,
2011-01-04, 00:43:05,VALID,1007.29,VALID,0,VALID,104,VALID,0,VALID,23.2476,VALID,40,VALID,0.449219,
2011-01-04, 00:44:05,VALID,1007.29,VALID,0,VALID,104,VALID,0,VALID,23.2459,VALID,40,VALID,0.372266,
2011-01-04, 00:45:05,VALID,1007.25,VALID,0,VALID,104,VALID,0,VALID,23.2264,VALID,40,VALID,0.352344,
2011-01-04, 00:46:05,VALID,1007.22,VALID,0,VALID,104,VALID,0,VALID,23.2459,VALID,40,VALID,0.44375,
2011-01-04, 00:47:05,VALID,1007.18,VALID,0,VALID,104,VALID,0,VALID,23.2671,VALID,52,VALID,0.700781,
2011-01-04, 00:48:05,VALID,1007.17,VALID,0,VALID,104,VALID,0,VALID,23.2671,VALID,137,VALID,0.65,
2011-01-04, 00:49:05,VALID,1007.16,VALID,0,VALID,104,VALID,0,VALID,23.2671,VALID,137,VALID,0.137891,
2011-01-04, 00:50:05,VALID,1007.13,VALID,0,VALID,104,VALID,0,VALID,23.2654,VALID,137,VALID,0.00117188,
2011-01-04, 00:51:05,VALID,1007.15,VALID,0,VALID,104,VALID,0,VALID,23.2866,VALID,137,VALID,0.688281,
2011-01-04, 00:52:05,VALID,1007.14,VALID,0,VALID,104,VALID,0,VALID,23.2671,VALID,137,VALID,0.457812,
2011-01-04, 00:53:05,VALID,1007.17,VALID,0,VALID,104,VALID,0,VALID,23.2264,VALID,137,VALID,0.263281,
2011-01-04, 00:54:05,VALID,1007.18,VALID,0,VALID,104,VALID,0,VALID,23.2671,VALID,137,VALID,0,
2011-01-04, 00:55:05,VALID,1007.19,VALID,0,VALID,104,VALID,0,VALID,23.2441,VALID,137,VALID,0.0195313,
2011-01-04, 00:56:05,VALID,1007.15,VALID,0,VALID,104,VALID,0,VALID,23.2441,VALID,137,VALID,0,
2011-01-04, 00:57:05,VALID,1007.17,VALID,0,VALID,104,VALID,0,VALID,23.2459,VALID,137,VALID,0.00117188,
2011-01-04, 00:58:05,VALID,1007.16,VALID,0,VALID,104,VALID,0,VALID,23.2246,VALID,137,VALID,0.0765625,
2011-01-04, 00:59:05,VALID,1007.1,VALID,0,VALID,104,VALID,0,VALID,23.2459,VALID,137,VALID,0.150781,
2011-01-04, 01:00:05,VALID,1007.11,VALID,0,VALID,104,VALID,0,VALID,23.2051,VALID,137,VALID,0.24375,
2011-01-04, 01:01:05,VALID,1007.09,VALID,0,VALID,104,VALID,0,VALID,23.2264,VALID,137,VALID,0,
2011-01-04, 01:02:05,VALID,1007.1,VALID,0,VALID,104,VALID,0,VALID,23.2264,VALID,137,VALID,0,
2011-01-04, 01:03:05,VALID,1007.06,VALID,0,VALID,104,VALID,0.105969,VALID,23.2069,VALID,137,VALID,0,
2011-01-04, 01:04:05,VALID,1007.08,VALID,0,VALID,104,VALID,0.105969,VALID,23.2051,VALID,137,VALID,0,
2011-01-04, 01:05:05,VALID,1007.08,VALID,0,VALID,104,VALID,0.105969,VALID,23.2069,VALID,137,VALID,0,
2011-01-04, 01:06:05,VALID,1007.08,VALID,0,VALID,104,VALID,0,VALID,23.2069,VALID,137,VALID,0,
2011-01-04, 01:07:05,VALID,1007.09,VALID,0,VALID,104,VALID,0,VALID,23.1857,VALID,137,VALID,0,
2011-01-04, 01:08:05,VALID,1007.07,VALID,0,VALID,104,VALID,0,VALID,23.1874,VALID,137,VALID,0,
2011-01-04, 01:09:05,VALID,1007.02,VALID,0,VALID,104,VALID,0,VALID,23.1874,VALID,137,VALID,0,
2011-01-04, 01:10:05,VALID,1007,VALID,0,VALID,104,VALID,0.105969,VALID,23.1679,VALID,137,VALID,0,
2011-01-04, 01:11:05,VALID,1006.98,VALID,0,VALID,104,VALID,0,VALID,23.1662,VALID,137,VALID,0,
2011-01-04, 01:12:05,VALID,1006.98,VALID,0,VALID,104,VALID,0,VALID,23.1874,VALID,137,VALID,0,
2011-01-04, 01:13:05,VALID,1006.98,VALID,0,VALID,104,VALID,0.105969,VALID,23.1662,VALID,137,VALID,0,
2011-01-04, 01:14:05,VALID,1006.97,VALID,0,VALID,104,VALID,0,VALID,23.1467,VALID,137,VALID,0,
2011-01-04, 01:15:05,VALID,1006.97,VALID,0,VALID,104,VALID,0.105969,VALID,23.1874,VALID,137,VALID,0,
2011-01-04, 01:16:05,VALID,1006.95,VALID,0,VALID,104,VALID,0.105969,VALID,23.1874,VALID,137,VALID,0,
2011-01-04, 01:17:05,VALID,1006.95,VALID,0,VALID,104,VALID,0,VALID,23.1679,VALID,137,VALID,0,
2011-01-04, 01:18:05,VALID,1006.96,VALID,0,VALID,104,VALID,0.105969,VALID,23.1662,VALID,137,VALID,0,
2011-01-04, 01:19:05,VALID,1006.93,VALID,0,VALID,104,VALID,0.105969,VALID,23.1467,VALID,137,VALID,0,
2011-01-04, 01:20:05,VALID,1006.91,VALID,0,VALID,104,VALID,0.105969,VALID,23.1662,VALID,137,VALID,0,
2011-01-04, 01:21:05,VALID,1006.88,VALID,0,VALID,104,VALID,0,VALID,23.1662,VALID,137,VALID,0,
2011-01-04, 01:22:05,VALID,1006.89,VALID,0,VALID,104,VALID,0,VALID,23.1679,VALID,137,VALID,0,
2011-01-04, 01:23:05,VALID,1006.9,VALID,0,VALID,104,VALID,0.105969,VALID,23.1467,VALID,137,VALID,0,
2011-01-04, 01:24:05,VALID,1006.91,VALID,0,VALID,104,VALID,0,VALID,23.1467,VALID,137,VALID,0,
2011-01-04, 01:25:05,VALID,1006.94,VALID,0,VALID,104,VALID,0,VALID,23.1467,VALID,137,VALID,0,
2011-01-04, 01:26:05,VALID,1006.93,VALID,0,VALID,104,VALID,0,VALID,23.1272,VALID,137,VALID,0,
2011-01-04, 01:27:05,VALID,1006.91,VALID,0,VALID,104,VALID,0,VALID,23.1485,VALID,137,VALID,0,
2011-01-04, 01:28:05,VALID,1006.91,VALID,0,VALID,104,VALID,0.105969,VALID,23.1485,VALID,137,VALID,0,
2011-01-04, 01:29:05,VALID,1006.91,VALID,0,VALID,104,VALID,0,VALID,23.1272,VALID,137,VALID,0,
2011-01-04, 01:30:05,VALID,1006.91,VALID,0,VALID,104,VALID,0,VALID,23.1077,VALID,137,VALID,0,
2011-01-04, 01:31:05,VALID,1006.91,VALID,0,VALID,104,VALID,0.105969,VALID,23.1077,VALID,137,VALID,0,
2011-01-04, 01:32:05,VALID,1006.91,VALID,0,VALID,104,VALID,0,VALID,23.1077,VALID,137,VALID,0,
2011-01-04, 01:33:05,VALID,1006.91,VALID,0,VALID,104,VALID,0.105969,VALID,23.129,VALID,137,VALID,0,
2011-01-04, 01:34:05,VALID,1006.92,VALID,0,VALID,104,VALID,0,VALID,23.1077,VALID,137,VALID,0,
2011-01-04, 01:35:05,VALID,1006.92,VALID,0,VALID,104,VALID,0.105969,VALID,23.1095,VALID,137,VALID,0,
2011-01-04, 01:36:05,VALID,1006.91,VALID,0,VALID,104,VALID,0,VALID,23.09,VALID,137,VALID,0,
2011-01-04, 01:37:05,VALID,1006.92,VALID,0,VALID,104,VALID,0.105969,VALID,23.0688,VALID,137,VALID,0,
2011-01-04, 01:38:05,VALID,1006.93,VALID,0,VALID,104,VALID,0.105969,VALID,23.0688,VALID,137,VALID,0,
2011-01-04, 01:39:05,VALID,1006.93,VALID,0,VALID,104,VALID,0,VALID,23.0705,VALID,137,VALID,0,
2011-01-04, 01:40:05,VALID,1006.93,VALID,0,VALID,104,VALID,0,VALID,23.0705,VALID,137,VALID,0,
2011-01-04, 01:41:05,VALID,1006.9,VALID,0,VALID,104,VALID,0,VALID,23.0723,VALID,137,VALID,0,
2011-01-04, 01:42:05,VALID,1006.94,VALID,0,VALID,104,VALID,0,VALID,23.0511,VALID,137,VALID,0,
2011-01-04, 01:43:05,VALID,1006.94,VALID,0,VALID,104,VALID,0,VALID,23.0511,VALID,137,VALID,0,
2011-01-04, 01:44:05,VALID,1006.95,VALID,0,VALID,104,VALID,0,VALID,23.0528,VALID,137,VALID,0,
2011-01-04, 01:45:05,VALID,1006.98,VALID,0,VALID,104,VALID,0,VALID,23.0511,VALID,137,VALID,0,
2011-01-04, 01:46:05,VALID,1007,VALID,0,VALID,104,VALID,0,VALID,23.0121,VALID,137,VALID,0,
2011-01-04, 01:47:05,VALID,1007,VALID,0,VALID,104,VALID,0,VALID,23.0121,VALID,137,VALID,0,
2011-01-04, 01:48:05,VALID,1007,VALID,0,VALID,104,VALID,0,VALID,23.0121,VALID,137,VALID,0,
2011-01-04, 01:49:05,VALID,1006.99,VALID,0,VALID,104,VALID,0,VALID,22.9926,VALID,137,VALID,0,
2011-01-04, 01:50:05,VALID,1006.98,VALID,0,VALID,104,VALID,0,VALID,22.9926,VALID,137,VALID,0,
2011-01-04, 01:51:05,VALID,1006.99,VALID,0,VALID,104,VALID,0,VALID,22.9926,VALID,137,VALID,0,
2011-01-04, 01:52:05,VALID,1006.96,VALID,0,VALID,104,VALID,0,VALID,22.9731,VALID,137,VALID,0,
2011-01-04, 01:53:05,VALID,1006.94,VALID,0,VALID,104,VALID,0,VALID,22.9536,VALID,137,VALID,0,
2011-01-04, 01:54:05,VALID,1006.95,VALID,0,VALID,104,VALID,0,VALID,22.9536,VALID,137,VALID,0,
2011-01-04, 01:55:05,VALID,1006.92,VALID,0,VALID,104,VALID,0.105969,VALID,22.9536,VALID,137,VALID,0,
2011-01-04, 01:56:05,VALID,1006.92,VALID,0,VALID,104,VALID,0.105969,VALID,22.9519,VALID,137,VALID,0,
2011-01-04, 01:57:05,VALID,1006.93,VALID,0,VALID,104,VALID,0.105969,VALID,22.9324,VALID,137,VALID,0,
2011-01-04, 01:58:04,VALID,1006.87,VALID,0,VALID,104,VALID,0,VALID,22.9536,VALID,137,VALID,0,
2011-01-04, 01:59:04,VALID,1006.86,VALID,0,VALID,104,VALID,0,VALID,22.9342,VALID,137,VALID,0,
2011-01-04, 02:00:04,VALID,1006.87,VALID,0,VALID,104,VALID,0.105969,VALID,22.9129,VALID,137,VALID,0,
2011-01-04, 02:01:04,VALID,1006.9,VALID,0,VALID,104,VALID,0,VALID,22.9342,VALID,137,VALID,0,
2011-01-04, 02:02:04,VALID,1006.89,VALID,0,VALID,104,VALID,0.105969,VALID,22.9342,VALID,137,VALID,0,
2011-01-04, 02:03:04,VALID,1006.87,VALID,0,VALID,104,VALID,0,VALID,22.9147,VALID,137,VALID,0,
2011-01-04, 02:04:04,VALID,1006.86,VALID,0,VALID,104,VALID,0.105969,VALID,22.8935,VALID,137,VALID,0,
2011-01-04, 02:05:04,VALID,1006.85,VALID,0,VALID,104,VALID,0.105969,VALID,22.8935,VALID,137,VALID,0,
2011-01-04, 02:06:04,VALID,1006.83,VALID,0,VALID,104,VALID,0.105969,VALID,22.874,VALID,137,VALID,0,
2011-01-04, 02:07:04,VALID,1006.83,VALID,0,VALID,104,VALID,0.105969,VALID,22.8545,VALID,137,VALID,0,
2011-01-04, 02:08:04,VALID,1006.8,VALID,0,VALID,104,VALID,0.105969,VALID,22.874,VALID,137,VALID,0,
2011-01-04, 02:09:04,VALID,1006.78,VALID,0,VALID,104,VALID,0.105969,VALID,22.8545,VALID,137,VALID,0,
2011-01-04, 02:10:04,VALID,1006.74,VALID,0,VALID,104,VALID,0.105969,VALID,22.8545,VALID,137,VALID,0,
2011-01-04, 02:11:04,VALID,1006.74,VALID,0,VALID,104,VALID,0.105969,VALID,22.8757,VALID,137,VALID,0,
2011-01-04, 02:12:04,VALID,1006.72,VALID,0,VALID,104,VALID,0,VALID,22.8545,VALID,137,VALID,0,
2011-01-04, 02:13:04,VALID,1006.7,VALID,0,VALID,104,VALID,0.105969,VALID,22.8545,VALID,137,VALID,0,
2011-01-04, 02:14:04,VALID,1006.68,VALID,0,VALID,104,VALID,0.105969,VALID,22.8545,VALID,137,VALID,0,
2011-01-04, 02:15:04,VALID,1006.65,VALID,0,VALID,104,VALID,0.105969,VALID,22.835,VALID,137,VALID,0,
2011-01-04, 02:16:04,VALID,1006.67,VALID,0,VALID,104,VALID,0.105969,VALID,22.8562,VALID,137,VALID,0,
2011-01-04, 02:17:04,VALID,1006.65,VALID,0,VALID,104,VALID,0,VALID,22.8368,VALID,137,VALID,0,
2011-01-04, 02:18:04,VALID,1006.67,VALID,0,VALID,104,VALID,0.105969,VALID,22.8155,VALID,137,VALID,0,
2011-01-04, 02:19:04,VALID,1006.67,VALID,0,VALID,104,VALID,0,VALID,22.8562,VALID,137,VALID,0,
2011-01-04, 02:20:04,VALID,1006.65,VALID,0,VALID,104,VALID,0.105969,VALID,22.8155,VALID,137,VALID,0,
2011-01-04, 02:21:04,VALID,1006.64,VALID,0,VALID,104,VALID,0.105969,VALID,22.8155,VALID,137,VALID,0,
2011-01-04, 02:22:04,VALID,1006.64,VALID,0,VALID,104,VALID,0.105969,VALID,22.8155,VALID,137,VALID,0,
2011-01-04, 02:23:04,VALID,1006.62,VALID,0,VALID,104,VALID,0,VALID,22.8173,VALID,137,VALID,0,
2011-01-04, 02:24:04,VALID,1006.66,VALID,0,VALID,104,VALID,0.105969,VALID,22.8155,VALID,137,VALID,0,
2011-01-04, 02:25:04,VALID,1006.66,VALID,0,VALID,104,VALID,0,VALID,22.7961,VALID,137,VALID,0,
2011-01-04, 02:26:04,VALID,1006.65,VALID,0,VALID,104,VALID,0.105969,VALID,22.8173,VALID,137,VALID,0,
2011-01-04, 02:27:04,VALID,1006.68,VALID,0,VALID,104,VALID,0,VALID,22.8155,VALID,137,VALID,0,
2011-01-04, 02:28:04,VALID,1006.65,VALID,0,VALID,104,VALID,0.105969,VALID,22.8562,VALID,137,VALID,0,
2011-01-04, 02:29:04,VALID,1006.66,VALID,0,VALID,104,VALID,0.105969,VALID,22.8545,VALID,137,VALID,0,
2011-01-04, 02:30:04,VALID,1006.7,VALID,0,VALID,104,VALID,0.105969,VALID,22.8757,VALID,137,VALID,0,
2011-01-04, 02:31:04,VALID,1006.69,VALID,0,VALID,104,VALID,0.105969,VALID,22.8952,VALID,137,VALID,0,
2011-01-04, 02:32:04,VALID,1006.69,VALID,0,VALID,104,VALID,0.105969,VALID,22.8935,VALID,137,VALID,0,
2011-01-04, 02:33:04,VALID,1006.73,VALID,0,VALID,104,VALID,0.105969,VALID,22.9342,VALID,137,VALID,0,
2011-01-04, 02:34:04,VALID,1006.75,VALID,0,VALID,104,VALID,0.105969,VALID,22.9324,VALID,137,VALID,0.217578,
2011-01-04, 02:35:04,VALID,1006.75,VALID,0,VALID,104,VALID,0,VALID,22.9536,VALID,137,VALID,0.149609,
2011-01-04, 02:36:04,VALID,1006.74,VALID,0,VALID,104,VALID,0.105969,VALID,22.9536,VALID,137,VALID,0,
2011-01-04, 02:37:04,VALID,1006.71,VALID,0,VALID,104,VALID,0,VALID,22.9324,VALID,137,VALID,0,
2011-01-04, 02:38:04,VALID,1006.67,VALID,0,VALID,104,VALID,0.105969,VALID,22.9324,VALID,137,VALID,0,
2011-01-04, 02:39:04,VALID,1006.65,VALID,0,VALID,104,VALID,0.105969,VALID,22.9324,VALID,137,VALID,0,
2011-01-04, 02:40:04,VALID,1006.63,VALID,0,VALID,104,VALID,0,VALID,22.9342,VALID,137,VALID,0,
2011-01-04, 02:41:04,VALID,1006.65,VALID,0,VALID,104,VALID,0,VALID,22.9342,VALID,137,VALID,0,
2011-01-04, 02:42:04,VALID,1006.68,VALID,0,VALID,104,VALID,0,VALID,22.9342,VALID,137,VALID,0,
2011-01-04, 02:43:04,VALID,1006.68,VALID,0,VALID,104,VALID,0,VALID,22.9554,VALID,137,VALID,0,
2011-01-04, 02:44:04,VALID,1006.66,VALID,0,VALID,104,VALID,0,VALID,22.9554,VALID,137,VALID,0,
2011-01-04, 02:45:04,VALID,1006.7,VALID,0,VALID,104,VALID,0,VALID,22.9342,VALID,137,VALID,0,
2011-01-04, 02:46:04,VALID,1006.7,VALID,0,VALID,104,VALID,0,VALID,22.9147,VALID,137,VALID,0,
2011-01-04, 02:47:04,VALID,1006.69,VALID,0,VALID,104,VALID,0,VALID,22.9359,VALID,137,VALID,0,
2011-01-04, 02:48:04,VALID,1006.69,VALID,0,VALID,104,VALID,0,VALID,22.9342,VALID,137,VALID,0,
2011-01-04, 02:49:04,VALID,1006.62,VALID,0,VALID,104,VALID,0,VALID,22.9342,VALID,137,VALID,0,
2011-01-04, 02:50:04,VALID,1006.61,VALID,0,VALID,104,VALID,0,VALID,22.9147,VALID,137,VALID,0,
2011-01-04, 02:51:04,VALID,1006.55,VALID,0,VALID,104,VALID,0,VALID,22.9554,VALID,137,VALID,0,
2011-01-04, 02:52:04,VALID,1006.55,VALID,0,VALID,104,VALID,0,VALID,22.9359,VALID,137,VALID,0,
2011-01-04, 02:53:04,VALID,1006.51,VALID,0,VALID,104,VALID,0,VALID,22.9342,VALID,137,VALID,0,
2011-01-04, 02:54:04,VALID,1006.5,VALID,0,VALID,104,VALID,0,VALID,22.9342,VALID,137,VALID,0,
2011-01-04, 02:55:04,VALID,1006.5,VALID,0,VALID,104,VALID,0,VALID,22.9536,VALID,137,VALID,0,
2011-01-04, 02:56:04,VALID,1006.54,VALID,0,VALID,103.992,VALID,0,VALID,22.9342,VALID,137,VALID,0,
2011-01-04, 02:57:04,VALID,1006.53,VALID,0,VALID,104,VALID,0,VALID,22.9749,VALID,137,VALID,0,
2011-01-04, 02:58:04,VALID,1006.53,VALID,0,VALID,104,VALID,0,VALID,22.9554,VALID,137,VALID,0,
2011-01-04, 02:59:04,VALID,1006.52,VALID,0,VALID,104,VALID,0,VALID,22.9536,VALID,137,VALID,0,
2011-01-04, 03:00:04,VALID,1006.52,VALID,0,VALID,103.985,VALID,0,VALID,22.9536,VALID,137,VALID,0,
2011-01-04, 03:01:04,VALID,1006.56,VALID,0,VALID,103.985,VALID,0,VALID,22.9536,VALID,137,VALID,0,
2011-01-04, 03:02:04,VALID,1006.56,VALID,0,VALID,103.977,VALID,0,VALID,22.9749,VALID,137,VALID,0,
2011-01-04, 03:03:04,VALID,1006.6,VALID,0,VALID,104,VALID,0,VALID,22.9342,VALID,137,VALID,0,
2011-01-04, 03:04:04,VALID,1006.57,VALID,0,VALID,104,VALID,0,VALID,22.9342,VALID,137,VALID,0,
2011-01-04, 03:05:04,VALID,1006.59,VALID,0,VALID,104,VALID,0,VALID,22.9342,VALID,137,VALID,0,
2011-01-04, 03:06:04,VALID,1006.61,VALID,0,VALID,104,VALID,0,VALID,22.9359,VALID,137,VALID,0,
2011-01-04, 03:07:04,VALID,1006.56,VALID,0,VALID,104,VALID,0,VALID,22.9554,VALID,137,VALID,0,
2011-01-04, 03:08:04,VALID,1006.51,VALID,0,VALID,104,VALID,0,VALID,22.9359,VALID,137,VALID,0.484375,
2011-01-04, 03:09:04,VALID,1006.53,VALID,0,VALID,104,VALID,0,VALID,22.9164,VALID,137,VALID,0.521484,
2011-01-04, 03:10:04,VALID,1006.54,VALID,0,VALID,104,VALID,0.105969,VALID,22.8935,VALID,137,VALID,0.243359,
2011-01-04, 03:11:04,VALID,1006.5,VALID,0,VALID,104,VALID,0,VALID,22.8952,VALID,137,VALID,0.502344,
2011-01-04, 03:12:04,VALID,1006.55,VALID,0,VALID,104,VALID,0,VALID,22.8952,VALID,137,VALID,0.650391,
2011-01-04, 03:13:04,VALID,1006.58,VALID,0,VALID,104,VALID,0,VALID,22.9147,VALID,137,VALID,0.503906,
2011-01-04, 03:14:04,VALID,1006.57,VALID,0,VALID,104,VALID,0.105969,VALID,22.874,VALID,137,VALID,0.445313,
2011-01-04, 03:15:04,VALID,1006.55,VALID,0,VALID,104,VALID,0,VALID,22.8952,VALID,137,VALID,0.270703,
2011-01-04, 03:16:04,VALID,1006.52,VALID,0,VALID,104,VALID,0.105969,VALID,22.8952,VALID,137,VALID,0.382813,
2011-01-04, 03:17:04,VALID,1006.51,VALID,0,VALID,104,VALID,0,VALID,22.9147,VALID,126,VALID,0.457031,
2011-01-04, 03:18:04,VALID,1006.5,VALID,0,VALID,104,VALID,0.105969,VALID,22.9147,VALID,126,VALID,0.397266,
2011-01-04, 03:19:04,VALID,1006.51,VALID,0,VALID,104,VALID,0.105969,VALID,22.9129,VALID,126,VALID,0.376172,
2011-01-04, 03:20:04,VALID,1006.48,VALID,0,VALID,104,VALID,0.105969,VALID,22.9129,VALID,126,VALID,0.322266,
2011-01-04, 03:21:04,VALID,1006.45,VALID,0,VALID,104,VALID,0.105969,VALID,22.9129,VALID,126,VALID,0.183203,
2011-01-04, 03:22:04,VALID,1006.43,VALID,0,VALID,104,VALID,0,VALID,22.9147,VALID,126,VALID,0.412891,
2011-01-04, 03:23:04,VALID,1006.42,VALID,0,VALID,104,VALID,0.105969,VALID,22.8935,VALID,101,VALID,0.638281,
2011-01-04, 03:24:04,VALID,1006.44,VALID,0,VALID,104,VALID,0,VALID,22.874,VALID,101,VALID,0.207813,
2011-01-04, 03:25:04,VALID,1006.46,VALID,0,VALID,104,VALID,0,VALID,22.874,VALID,101,VALID,0,
2011-01-04, 03:26:04,VALID,1006.47,VALID,0,VALID,104,VALID,0.105969,VALID,22.8545,VALID,101,VALID,0,
2011-01-04, 03:27:04,VALID,1006.45,VALID,0,VALID,104,VALID,0.105969,VALID,22.8952,VALID,101,VALID,0,
2011-01-04, 03:28:04,VALID,1006.42,VALID,0,VALID,104,VALID,0.105969,VALID,22.8757,VALID,101,VALID,0.130859,
2011-01-04, 03:29:04,VALID,1006.41,VALID,0,VALID,104,VALID,0,VALID,22.8562,VALID,101,VALID,0.211719,
2011-01-04, 03:30:04,VALID,1006.4,VALID,0,VALID,104,VALID,0,VALID,22.8562,VALID,101,VALID,0.182812,
2011-01-04, 03:31:04,VALID,1006.39,VALID,0,VALID,104,VALID,0,VALID,22.8562,VALID,101,VALID,0,
2011-01-04, 03:32:04,VALID,1006.38,VALID,0,VALID,104,VALID,0,VALID,22.8368,VALID,101,VALID,0,
2011-01-04, 03:33:04,VALID,1006.37,VALID,0,VALID,104,VALID,0,VALID,22.8173,VALID,101,VALID,0.0402344,
2011-01-04, 03:34:04,VALID,1006.35,VALID,0,VALID,104,VALID,0,VALID,22.7961,VALID,101,VALID,0,
2011-01-04, 03:35:04,VALID,1006.36,VALID,0,VALID,104,VALID,0.105969,VALID,22.8173,VALID,101,VALID,0,
2011-01-04, 03:36:04,VALID,1006.38,VALID,0,VALID,104,VALID,0,VALID,22.7766,VALID,101,VALID,0.176172,
2011-01-04, 03:37:04,VALID,1006.37,VALID,0,VALID,104,VALID,0.105969,VALID,22.7783,VALID,101,VALID,0.399609,
2011-01-04, 03:38:04,VALID,1006.38,VALID,0,VALID,104,VALID,0.105969,VALID,22.7571,VALID,101,VALID,0.00585938,
2011-01-04, 03:39:04,VALID,1006.36,VALID,0,VALID,104,VALID,0,VALID,22.7376,VALID,101,VALID,0,
2011-01-04, 03:40:04,VALID,1006.37,VALID,0,VALID,104,VALID,0.105969,VALID,22.7571,VALID,101,VALID,0,
2011-01-04, 03:41:04,VALID,1006.39,VALID,0,VALID,104,VALID,0.105969,VALID,22.7376,VALID,101,VALID,0,
2011-01-04, 03:42:04,VALID,1006.36,VALID,0,VALID,104,VALID,0.105969,VALID,22.7376,VALID,101,VALID,0,
2011-01-04, 03:43:04,VALID,1006.34,VALID,0,VALID,104,VALID,0.105969,VALID,22.7376,VALID,101,VALID,0,
2011-01-04, 03:44:04,VALID,1006.36,VALID,0,VALID,104,VALID,0.105969,VALID,22.7376,VALID,101,VALID,0,
2011-01-04, 03:45:04,VALID,1006.37,VALID,0,VALID,104,VALID,0.105969,VALID,22.7182,VALID,101,VALID,0,
2011-01-04, 03:46:04,VALID,1006.38,VALID,0,VALID,104,VALID,0.105969,VALID,22.7182,VALID,101,VALID,0,
2011-01-04, 03:47:04,VALID,1006.42,VALID,0,VALID,104,VALID,0.105969,VALID,22.6987,VALID,101,VALID,0,
2011-01-04, 03:48:04,VALID,1006.44,VALID,0,VALID,104,VALID,0.105969,VALID,22.7199,VALID,101,VALID,0,
2011-01-04, 03:49:04,VALID,1006.42,VALID,0,VALID,104,VALID,0.105969,VALID,22.6987,VALID,101,VALID,0,
2011-01-04, 03:50:04,VALID,1006.44,VALID,0,VALID,104,VALID,0.105969,VALID,22.7199,VALID,101,VALID,0,
2011-01-04, 03:51:04,VALID,1006.44,VALID,0,VALID,104,VALID,0,VALID,22.7199,VALID,101,VALID,0,
2011-01-04, 03:52:04,VALID,1006.46,VALID,0,VALID,104,VALID,0.105969,VALID,22.7394,VALID,101,VALID,0,
2011-01-04, 03:53:04,VALID,1006.45,VALID,0,VALID,104,VALID,0.105969,VALID,22.7182,VALID,101,VALID,0,
2011-01-04, 03:54:04,VALID,1006.45,VALID,0,VALID,104,VALID,0.105969,VALID,22.7376,VALID,101,VALID,0,
2011-01-04, 03:55:04,VALID,1006.49,VALID,0,VALID,104,VALID,0,VALID,22.7394,VALID,101,VALID,0,
2011-01-04, 03:56:04,VALID,1006.47,VALID,0,VALID,104,VALID,0,VALID,22.7394,VALID,101,VALID,0,
2011-01-04, 03:57:04,VALID,1006.49,VALID,0,VALID,104,VALID,0,VALID,22.7411,VALID,101,VALID,0,
2011-01-04, 03:58:04,VALID,1006.48,VALID,0,VALID,104,VALID,0,VALID,22.7199,VALID,101,VALID,0,
2011-01-04, 03:59:04,VALID,1006.48,VALID,0,VALID,104,VALID,0,VALID,22.7394,VALID,101,VALID,0,
2011-01-04, 04:00:04,VALID,1006.45,VALID,0,VALID,104,VALID,0,VALID,22.7394,VALID,101,VALID,0,